Monroe, MI

5:42 AM EDT on June 24, 2017 (GMT -0400)
Custer

Weather History for KTTF - February, 2012

Change the Weather History Date:

Friday, February 24, 2012

  Actual Average Record
Temperature  
Mean Temperature 36 °F -  
Max Temperature 39 °F 39 °F 70 °F (2017)
Min Temperature 33 °F 24 °F -3 °F (1934)
Degree Days  
Heating Degree Days 29    
Moisture  
Dew Point 34 °F    
Average Humidity 95    
Maximum Humidity 100    
Minimum Humidity 75    
Precipitation  
Precipitation 0.00 in - - ()
Sea Level Pressure  
Sea Level Pressure 29.44 in    
Wind  
Wind Speed 12 mph (WNW)    
Max Wind Speed 25 mph    
Max Gust Speed 33 mph    
Visibility 7 miles    
Events Rain , Snow    
Averages and records for this station are not official NWS values.
T = Trace of Precipitation, MM = Missing Value Source: NWS Daily Summary

Daily Weather History Graph

Daily Weather History Graph

Search for Another Location

Airport or City:

Trip Planner

Search our weather history database for the weather conditions in past years. The results will help you decide how hot, cold, wet, or windy it might be!

Date:

Astronomy

Feb. 24, 2012 Rise Set
Actual Time 7:17 AM EST 6:17 PM EST
Civil Twilight 6:49 AM EST 6:45 PM EST
Nautical Twilight 6:16 AM EST 7:17 PM EST
Astronomical Twilight 5:44 AM EST 7:50 PM EST
Moon 8:07 AM EST 9:24 PM EST
Length of Visible Light 11h 56m
Length of Day
11h 00m
Waxing Crescent, 7% of the Moon is Illuminated
Feb 24
Waxing Crescent
Feb 29
First Quarter
Mar 8
Full
Mar 14
Last Quarter
Mar 22
New

Hourly Weather History & Observations

Time (EST) Temp. Windchill Dew Point Humidity Pressure Visibility Wind Dir Wind Speed Gust Speed Precip Events Conditions
12:15 AM 33.8 °F 28.6 °F 33.8 °F 100% 29.52 in 1.5 mi NE 5.8 mph - N/A Snow Light Snow
12:35 AM 33.8 °F 26.4 °F 33.8 °F 100% 29.50 in 1.2 mi NE 9.2 mph - N/A Snow Light Snow
12:55 AM 33.8 °F 27.7 °F 33.8 °F 100% 29.50 in 2.5 mi ENE 6.9 mph - N/A   Overcast
1:15 AM 33.8 °F 24.8 °F 33.8 °F 100% 29.48 in 4.0 mi ENE 12.7 mph 16.1 mph N/A   Overcast
1:35 AM 33.8 °F 25.3 °F 33.8 °F 100% 29.47 in 5.0 mi ENE 11.5 mph 17.3 mph N/A   Overcast
1:55 AM 33.8 °F 26.4 °F 33.8 °F 100% 29.48 in 5.0 mi ENE 9.2 mph - N/A   Overcast
2:10 AM 33.8 °F 27.0 °F 33.8 °F 100% 29.46 in 3.0 mi ENE 8.1 mph - N/A   Overcast
2:31 AM 33.8 °F 24.8 °F 33.8 °F 100% 29.45 in 5.0 mi ENE 12.7 mph - N/A   Overcast
2:51 AM 33.8 °F 25.8 °F 33.8 °F 100% 29.42 in 4.0 mi ENE 10.4 mph - N/A Rain Light Rain
3:11 AM 33.8 °F 24.8 °F 33.8 °F 100% 29.42 in 5.0 mi ENE 12.7 mph 18.4 mph N/A   Overcast
3:31 AM 33.8 °F 26.4 °F 33.8 °F 100% 29.40 in 7.0 mi ENE 9.2 mph - N/A   Overcast
3:51 AM 33.8 °F 25.8 °F 33.8 °F 100% 29.40 in 10.0 mi East 10.4 mph 17.3 mph N/A   Overcast
4:11 AM 33.8 °F 27.0 °F 33.8 °F 100% 29.38 in 10.0 mi ENE 8.1 mph 16.1 mph N/A   Overcast
4:31 AM 33.8 °F 25.8 °F 33.8 °F 100% 29.37 in 10.0 mi ENE 10.4 mph - N/A   Overcast
4:51 AM 33.8 °F 27.7 °F 33.8 °F 100% 29.36 in 10.0 mi ENE 6.9 mph - N/A   Overcast
5:11 AM 33.8 °F 27.0 °F 33.8 °F 100% 29.34 in 7.0 mi ENE 8.1 mph - N/A   Overcast
5:31 AM 33.8 °F 27.7 °F 33.8 °F 100% 29.34 in 7.0 mi ENE 6.9 mph - N/A   Overcast
5:52 AM 33.8 °F 28.6 °F 33.8 °F 100% 29.34 in 7.0 mi East 5.8 mph - N/A   Overcast
6:12 AM 33.8 °F 29.6 °F 33.8 °F 100% 29.35 in 4.0 mi ENE 4.6 mph - N/A   Overcast
6:32 AM 33.8 °F 27.0 °F 33.8 °F 100% 29.31 in 2.5 mi East 8.1 mph - N/A   Drizzle
6:52 AM 33.8 °F 25.8 °F 33.8 °F 100% 29.30 in 2.5 mi East 10.4 mph - N/A   Overcast
7:12 AM 33.8 °F 27.0 °F 33.8 °F 100% 29.30 in 3.0 mi East 8.1 mph - N/A Rain Light Rain
7:32 AM 35.6 °F 29.9 °F 35.6 °F 100% 29.30 in 3.0 mi East 6.9 mph - N/A Rain Rain
7:52 AM 35.6 °F 30.7 °F 35.6 °F 100% 29.30 in 4.0 mi ESE 5.8 mph - N/A Rain Light Rain
8:12 AM 35.6 °F 31.7 °F 35.6 °F 100% 29.30 in 2.5 mi ESE 4.6 mph - N/A   Overcast
8:33 AM 35.6 °F 30.7 °F 35.6 °F 100% 29.29 in 1.8 mi ESE 5.8 mph - N/A   Overcast
8:53 AM 35.6 °F 30.7 °F 35.6 °F 100% 29.29 in 1.0 mi SE 5.8 mph - N/A   Overcast
9:33 AM 35.6 °F 29.9 °F 35.6 °F 100% 29.27 in 1.2 mi South 6.9 mph - N/A   Overcast
9:53 AM 35.6 °F 28.6 °F 35.6 °F 100% 29.27 in 1.0 mi SSW 9.2 mph - N/A   Overcast
10:13 AM 37.4 °F 28.9 °F 37.4 °F 100% 29.26 in 2.5 mi SW 13.8 mph - N/A   Overcast
10:33 AM 37.4 °F 28.5 °F 37.4 °F 100% 29.26 in 4.0 mi WSW 15.0 mph 20.7 mph N/A   Overcast
10:53 AM 37.4 °F 28.9 °F 37.4 °F 100% 29.25 in 5.0 mi WSW 13.8 mph 20.7 mph N/A   Overcast
11:13 AM 39.2 °F 30.2 °F 39.2 °F 100% 29.26 in 5.0 mi WSW 17.3 mph - N/A   Light Drizzle
11:34 AM 39.2 °F 29.6 °F 39.2 °F 100% 29.26 in 10.0 mi WSW 19.6 mph 28.8 mph N/A   Overcast
11:54 AM 39.2 °F 28.3 °F 39.2 °F 100% 29.26 in 10.0 mi WSW 25.3 mph 33.4 mph N/A   Overcast
12:14 PM 39.2 °F 28.5 °F 39.2 °F 100% 29.27 in 5.0 mi WSW 24.2 mph 32.2 mph N/A   Drizzle
12:34 PM 39.2 °F 29.3 °F 39.2 °F 100% 29.28 in 7.0 mi WSW 20.7 mph 29.9 mph N/A   Light Drizzle
1:14 PM 37.4 °F 26.9 °F 37.4 °F 100% 29.31 in 10.0 mi West 20.7 mph 28.8 mph N/A   Overcast
1:34 PM 37.4 °F 26.6 °F 37.4 °F 100% 29.33 in 10.0 mi West 21.9 mph 28.8 mph N/A   Overcast
1:54 PM 35.6 °F 23.7 °F 35.6 °F 100% 29.36 in 10.0 mi West 24.2 mph 31.1 mph N/A   Overcast
2:15 PM 35.6 °F 23.7 °F 35.6 °F 100% 29.38 in 10.0 mi West 24.2 mph 32.2 mph N/A   Overcast
2:35 PM 35.6 °F 24.2 °F 35.6 °F 100% 29.41 in 10.0 mi West 21.9 mph 31.1 mph N/A   Overcast
2:55 PM 37.4 °F 26.4 °F 35.6 °F 93% 29.44 in 10.0 mi West 23.0 mph 29.9 mph N/A   Overcast
3:15 PM 37.4 °F 26.4 °F 35.6 °F 93% 29.47 in 10.0 mi WNW 23.0 mph 33.4 mph N/A Snow Light Snow
3:35 PM 35.6 °F 24.8 °F 35.6 °F 100% 29.50 in 7.0 mi WNW 19.6 mph 29.9 mph N/A   Overcast
3:55 PM 37.4 °F 26.9 °F 35.6 °F 93% 29.52 in 10.0 mi WNW 20.7 mph 28.8 mph N/A   Overcast
4:10 PM 35.6 °F 24.5 °F 35.6 °F 100% 29.53 in 10.0 mi West 20.7 mph 32.2 mph N/A Snow Light Snow
4:50 PM 35.6 °F 24.5 °F 33.8 °F 93% 29.57 in 10.0 mi West 20.7 mph 27.6 mph N/A   Overcast
5:11 PM 35.6 °F 25.2 °F 30.2 °F 81% 29.58 in 10.0 mi WNW 18.4 mph 24.2 mph N/A   Overcast
5:31 PM 35.6 °F 26.2 °F 32.0 °F 87% 29.60 in 7.0 mi West 15.0 mph 23.0 mph N/A Snow Light Snow
5:51 PM 35.6 °F 25.9 °F 30.2 °F 81% 29.61 in 10.0 mi West 16.1 mph 23.0 mph N/A   Overcast
6:11 PM 35.6 °F 26.2 °F 30.2 °F 81% 29.63 in 10.0 mi West 15.0 mph 24.2 mph N/A   Scattered Clouds
6:31 PM 35.6 °F 26.2 °F 28.4 °F 75% 29.64 in 10.0 mi West 15.0 mph 24.2 mph N/A   Scattered Clouds
6:51 PM 35.6 °F 28.0 °F 30.2 °F 81% 29.65 in 10.0 mi West 10.4 mph - N/A   Overcast
7:11 PM 35.6 °F 25.9 °F 30.2 °F 81% 29.67 in 10.0 mi West 16.1 mph 23.0 mph N/A   Overcast
7:31 PM 35.6 °F 24.5 °F 28.4 °F 75% 29.69 in 5.0 mi WNW 20.7 mph 26.5 mph N/A Snow Light Snow
7:52 PM 33.8 °F 24.3 °F 30.2 °F 87% 29.69 in 10.0 mi West 13.8 mph 21.9 mph N/A   Overcast
8:12 PM 33.8 °F 25.3 °F 30.2 °F 87% 29.70 in 10.0 mi West 11.5 mph 18.4 mph N/A   Mostly Cloudy
8:32 PM 33.8 °F 23.5 °F 30.2 °F 87% 29.70 in 10.0 mi West 16.1 mph 19.6 mph N/A   Mostly Cloudy
8:52 PM 33.8 °F 23.9 °F 28.4 °F 81% 29.71 in 10.0 mi West 15.0 mph 20.7 mph N/A   Overcast
9:12 PM 33.8 °F 23.2 °F 26.6 °F 75% 29.72 in 10.0 mi West 17.3 mph - N/A   Overcast
9:32 PM 33.8 °F 23.5 °F 26.6 °F 75% 29.73 in 10.0 mi West 16.1 mph 19.6 mph N/A   Overcast
9:52 PM 33.8 °F 23.9 °F 28.4 °F 81% 29.73 in 10.0 mi West 15.0 mph - N/A   Overcast
10:12 PM 33.8 °F 24.8 °F 28.4 °F 81% 29.74 in 7.0 mi West 12.7 mph - N/A Snow Light Snow
10:33 PM 33.8 °F 24.3 °F 30.2 °F 87% 29.74 in 5.0 mi West 13.8 mph - N/A Snow Light Snow
10:53 PM 33.8 °F 24.8 °F 32.0 °F 93% 29.73 in 4.0 mi West 12.7 mph - N/A Snow Light Snow
11:13 PM 33.8 °F 23.5 °F 33.8 °F 100% 29.74 in 10.0 mi West 16.1 mph 19.6 mph N/A   Overcast
11:33 PM 33.8 °F 24.8 °F 33.8 °F 100% 29.74 in 2.5 mi West 12.7 mph 18.4 mph N/A Snow Light Snow
11:53 PM 33.8 °F 25.3 °F 33.8 °F 100% 29.73 in 3.0 mi West 11.5 mph - N/A Snow Light Snow